Other Public Products
Issued by NWS Grand Forks, ND

Home | Current Version | Previous Version | Text Only | Print | Product List | Glossary Off
Versions: 1 2 3 4 5 6 7 8 9 10 11 12 13 14 15 16 17 18 19 20 21 22 23 24 25 26 27 28 29 30 31 32 33 34 35 36 37 38 39 40 41 42 43 44 45 46 47 48 49 50

000
FPUS83 KFGF 211831
OPUFGF
PRAIRIE TO PINES WEATHER ROUNDUP
NATIONAL WEATHER SERVICE EASTERN NORTH DAKOTA/GRAND FORKS ND
1200 PM CST SUN DEC 21 2014

 **SATELLITE DATA USED TO AUGMENT SKY COVER AT AUTOMATED STATIONS**
 *****  WEATHER ACROSS EASTERN NORTH DAKOTA  *****

CITY           SKY/WX    TMP DP  RH WIND       PRES   REMARKS
GRAND FORKS    CLOUDY    31  29  92 S15       29.66F WCI  20
6HR MIN TEMP:  30; 6HR MAX TEMP:  31;

GRAND FORKS AF CLOUDY    31  31 100 S15       29.65F WCI  20
GRAND CITY NWS   N/A     30 N/A N/A S12         N/A  WCI  21
BUXTON           N/A     31  30  98 SE14        N/A  WCI  20
DEVILS LAKE    CLOUDY    25  19  80 SE9       29.55F WCI  15
6HR MIN TEMP:  16; 6HR MAX TEMP:  25;

FARGO          CLOUDY    33  29  85 S16       29.67F FOG     WCI  23
6HR MIN TEMP:  32; 6HR MAX TEMP:  33;

WAHPETON ARPT  CLOUDY    32  30  93 S14       29.67F WCI  22
$$

 *****  WEATHER ACROSS CENTRAL AND WESTERN NORTH DAKOTA  *****

CITY           SKY/WX    TMP DP  RH WIND       PRES   REMARKS
JAMESTOWN      CLOUDY    32  29  88 SE13      29.56F FOG     WCI  22
6HR MIN TEMP:  21; 6HR MAX TEMP:  32;

BISMARCK       SUNNY     34  29  82 SE9       29.51F
6HR MIN TEMP:  17; 6HR MAX TEMP:  34;

MINOT          SUNNY     28  24  85 E5        29.46F WCI  23
6HR MIN TEMP:  15; 6HR MAX TEMP:  28;

MINOT AFB      SUNNY     26  26 100 SE10      29.46F WCI  16
6HR MIN TEMP:  11; 6HR MAX TEMP:  26;

GARRISON         N/A     31  27  85 E7        29.46F WCI  24
6HR MIN TEMP:  17; 6HR MAX TEMP:  31;

WILLISTON      CLOUDY    29  25  85 CALM      29.40F
6HR MIN TEMP:  11; 6HR MAX TEMP:  29;

DICKINSON      CLOUDY    38  27  64 S7        29.40F
6HR MIN TEMP:  22; 6HR MAX TEMP:  38;

HETTINGER      MOSUNNY   37  28  70 SE9       29.42F
6HR MIN TEMP:  20; 6HR MAX TEMP:  37;

$$

 *****  OTHER OBSERVATIONS NORTHEAST NORTH DAKOTA  *****

CITY           SKY/WX    TMP DP  RH WIND       PRES   REMARKS
WALHALLA         N/A     27  27 100 S12       29.60F WCI  16
LANGDON        FOG       25  25 100 N5        29.55F VSB<1/4 WCI  19
CAVALIER       CLOUDY    28  28 100 S12       29.62F FOG     WCI  18
GRAFTON        NOT AVBL
CANDO          CLOUDY    27  25  93 SE12      29.55F WCI  16
FORT TOTTEN      N/A     25  24  95 SE3       29.95
ROLLA          NOT AVBL
RUGBY          FAIR      27  27 100 SE10      29.51F WCI  17
 ***** THE ABOVE OBSERVATIONS ARE NON NWS ARE NOT QUALITY
        CONTROLLED AND MAY MIS-REPORT RAIN FOR SNOW...
$$

 *****  OTHER OBSERVATIONS SOUTHEAST NORTH DAKOTA *****

CITY           SKY/WX    TMP DP  RH WIND       PRES   REMARKS
COOPERSTOWN    NOT AVBL
VALLEY CITY    CLOUDY    30  30 100 SE12      29.60F FOG     WCI  21
OAKES            N/A     32  32 100 SE12      29.60F WCI  23
GWINNER        PTCLDY    34  34 100 SE12      29.62F
BUFFALO        NOT AVBL
WYNDMERE         N/A     34  30  86 S12         N/A
 ***** THE ABOVE OBSERVATIONS ARE NON NWS ARE NOT QUALITY
       CONTROLLED AND MAY MIS-REPORT RAIN FOR SNOW...
$$

  *****  WEATHER ACROSS NORTHERN MINNESOTA  *****

CITY           SKY/WX    TMP DP  RH WIND       PRES   REMARKS
FLAG ISLAND    LGT SNOW  28  28 100 SE17      29.67F WCI  16
WARROAD        CLOUDY    30  27  86 S7        29.68F FOG     WCI  23
ROSEAU         CLOUDY    30  27  86 S14       29.66F FOG     WCI  20
HALLOCK        CLOUDY    30  30 100 CALM      29.64F FOG
THF RVR FALLS  CLOUDY    30  28  93 S14       29.66F WCI  20
6HR MIN TEMP:  30; 6HR MAX TEMP:  30;

HALSTAD          N/A     32  28  88 S16         N/A  WCI  21
FOSSTON        CLOUDY    28  28 100 SE8       29.67F FOG     WCI  20
BAUDETTE       CLOUDY    31  28  89 S10G18    29.70F WCI  22
6HR MIN TEMP:  29; 6HR MAX TEMP:  31; 6HR PCP:  0.04;

WASKISH        CLOUDY    30  30 100 SE3       29.70F
CROOKSTON      CLOUDY    30  30 100 S16       29.68F FOG     WCI  19
$$
  *****  WEATHER ACROSS CENTRAL AND WEST MINNESOTA  *****

CITY           SKY/WX    TMP DP  RH WIND       PRES   REMARKS
BEMIDJI        CLOUDY    30  28  93 S8G20     29.69F FOG     WCI  23
PARK RAPIDS    CLOUDY    31  30  96 S15       29.70F FOG     WCI  20
6HR MIN TEMP:  30; 6HR MAX TEMP:  31;

WADENA         CLOUDY    30  30 100 SE12G17   29.69F FOG     WCI  21
DETROIT LAKES  CLOUDY    32  32 100 S16G23    29.67F FOG     WCI  21
MOORHEAD       CLOUDY    32  32 100 S18G24    29.68F FOG     WCI  20
FERGUS FALLS   CLOUDY    30  30 100 S16       29.71F FOG     WCI  19
ELBOW LAKE     CLOUDY    31  31  97 SE15      29.68F FOG     WCI  21
6HR MIN TEMP:  29; 6HR MAX TEMP:  31;

MORRIS MN      CLOUDY    34  32  93 S15       29.68F FOG     WCI  24
STAPLES        CLOUDY    30  30 100 SE6       29.71F FOG     WCI  24
WHEATON        CLOUDY    30  28  93 SE14      29.69F FOG     WCI  20
$$
  *****  WEATHER ELSEWHERE ACROSS MINNESOTA  *****

CITY           SKY/WX    TMP DP  RH WIND       PRES   REMARKS
DULUTH         LGT SNOW  31  29  92 SE9       29.79F VSB 3/4 WCI  23
6HR MIN TEMP:  29; 6HR MAX TEMP:  31; 6HR PCP: TRACE;

INTRNTL FALLS  CLOUDY    30  28  92 S8G17     29.74F WCI  22
6HR MIN TEMP:  29; 6HR MAX TEMP:  30; 6HR PCP:  0.02;

ELY            CLOUDY    30  28  93 S8        29.80F WCI  23
CLOQUET        CLOUDY    30  30 100 SE7       29.79F FOG     WCI  23
BRAINERD       CLOUDY    32  31  96 S7        29.75F FOG
6HR MIN TEMP:  30; 6HR MAX TEMP:  32;

HIBBING        CLOUDY    31  28  89 S9        29.78F FOG     WCI  23
6HR MIN TEMP:  29; 6HR MAX TEMP:  31;

ALEXANDRIA     FOG       32  31  96 S13       29.70F VSB 1   WCI  22
6HR MIN TEMP:  30; 6HR MAX TEMP:  32;

SAINT CLOUD    FOG       35  33  92 SE12      29.75F VSB 1
6HR MIN TEMP:  33; 6HR MAX TEMP:  35;

MINNEAPOLIS    LGTSLEET  34  33  96 SE9       29.80F FOG
6HR MIN TEMP:  32; 6HR MAX TEMP:  34; 6HR PCP:  0.07;

$$

  *****  WEATHER ACROSS SOUTH DAKOTA  *****

CITY           SKY/WX    TMP DP  RH WIND       PRES   REMARKS
SIOUX FALLS    CLOUDY    34  34 100 S13       29.67F FOG     WCI  25
6HR MIN TEMP:  32; 6HR MAX TEMP:  34; 6HR PCP: TRACE;

BROOKINGS      NOT AVBL
WATERTOWN      CLOUDY    31  30  96 S15       29.62F FOG     WCI  20
6HR MIN TEMP:  29; 6HR MAX TEMP:  31;

HURON          CLOUDY    31  30  96 S13       29.61F FOG     WCI  21
6HR MIN TEMP:  30; 6HR MAX TEMP:  31;

SISSETON       NOT AVBL
ABERDEEN       CLOUDY    32  30  92 S15       29.60F FOG     WCI  22
6HR MIN TEMP:  30; 6HR MAX TEMP:  32;

MITCHELL       MOSUNNY   34  31  88 SE15      29.62F WCI  24
PIERRE         SUNNY     30  26  85 SE9       29.50F WCI  22
6HR MIN TEMP:  21; 6HR MAX TEMP:  30;

MOBRIDGE       SUNNY     37  28  70 SE13      29.48F
RAPID CITY     PTSUNNY   38  27  64 SW3       29.44F
6HR MIN TEMP:  21; 6HR MAX TEMP:  38;

$$

  *****  SOME WEATHER IN NEARBY STATES *****

CITY           SKY/WX    TMP DP  RH WIND       PRES   REMARKS
GLASGOW MT     CLOUDY    31  26  82 SE7       29.32F WCI  24
6HR MIN TEMP:  22; 6HR MAX TEMP:  31;

GREAT FALLS MT MOSUNNY   48  30  49 SW26G33   29.37R
6HR MIN TEMP:  40; 6HR MAX TEMP:  48;

CHEYENNE WY    CLOUDY    42  22  44 W24G38    29.59F
6HR MIN TEMP:  33; 6HR MAX TEMP:  44;

SCOTTSBLUFF NE CLOUDY    41  28  60 S7        29.55F
6HR MIN TEMP:  19; 6HR MAX TEMP:  41;

OMAHA NE       CLOUDY    41  38  89 S20G28    29.83F
6HR MIN TEMP:  37; 6HR MAX TEMP:  41;

DES MOINES IA  CLOUDY    42  35  76 S16G25    29.91F
6HR MIN TEMP:  38; 6HR MAX TEMP:  42;

DAVENPORT IA   CLOUDY    39  32  76 S17       30.04F
6HR MIN TEMP:  35; 6HR MAX TEMP:  39;

CHICAGO IL     CLOUDY    35  28  75 S13       30.14F
6HR MIN TEMP:  32; 6HR MAX TEMP:  35;

EAU CLAIRE WI  CLOUDY    34  31  88 SE13      29.88F FOG     WCI  25
6HR MIN TEMP:  31; 6HR MAX TEMP:  33; 6HR PCP: TRACE;

LA CROSSE WI   CLOUDY    38  34  85 S12       29.93F FOG
6HR MIN TEMP:  34; 6HR MAX TEMP:  38;

$$

  *****  SOME NATIONAL WEATHER *****

CITY           SKY/WX    TMP DP  RH WIND       PRES   REMARKS
LA GUARDIA NY  PTSUNNY   34  27  75 NW8       30.29F


USA.gov is the U.S. government's official web portal to all federal, state and local government web resources and services.